Location: Cotdoussan
(43.0366°N, 0.0068°E)
Time: 00:52:31
(UTC+00:00)

ARIANE 6 FM1 Upper Stage - Pass Details

Date: 25 January 2026
Orbit: 522 x 609 km, 62.0° (Epoch: 11 February)

Event Time Altitude Azimuth Distance (km) Brightness Sun altitude
Rises 17:30:05 0° 202° (SSW) 2,719 6.9 -5.4°
Reaches altitude 10° 17:32:22 10° 197° (SSW) 1,814 5.8 -5.7°
Maximum altitude 17:36:17 47° 123° (ESE) 717 3.0 -6.4°
Drops below altitude 10° 17:40:08 10° 49° (NE) 1,785 4.6 -7.1°
Enters shadow 17:40:44 - 47° (NE) 2,018 4.9 -7.2°
